Location: �A�n Sefra
(34.9681°N, 0.4346°E)
Time: 17:24:21
(UTC+00:00)

Cosmos 1271 Rocket - Pass Details

Date: 21 October 2019
Orbit: 499 x 545 km, 81.2° (Epoch: 18 November)

Event Time Altitude Azimuth Distance (km) Brightness Sun altitude
Rises 17:40:15 0° 347° (NNW) 2,705 6.4 -5.6°
Reaches altitude 10° 17:42:25 10° 344° (NNW) 1,813 5.6 -6.1°
Maximum altitude 17:46:22 61° 265° (W) 623 3.5 -6.9°
Drops below altitude 10° 17:50:18 10° 184° (S) 1,805 5.6 -7.7°
Sets 17:52:27 0° 181° (S) 2,692 6.5 -8.1°
